• In Hungary
  • List of Countries
  • For 7 days
  • Water Temperature
  • Satellite Maps
  • Weather Map
  • News
  • Weather Widgets
  • user-avatar
    Login

    Hourly Weather Karasay

    Today, 22 August, Wednesday

    Time Temperature Precipitation Wind Pressure Humidity
    00:00 +21°C° 0 mm 3 mps 743 mmHg 50%
    01:00 +21°C° 0 mm 3 mps 743 mmHg 49%
    02:00 +20°C° 0 mm 3 mps 743 mmHg 47%
    03:00 +20°C° 0 mm 3 mps 743 mmHg 46%
    04:00 +20°C° 0 mm 4 mps 743 mmHg 41%
    05:00 +20°C° 0 mm 4 mps 743 mmHg 41%
    06:00 +21°C° 0 mm 4 mps 743 mmHg 41%
    07:00 +21°C° 0 mm 4 mps 743 mmHg 40%
    08:00 +23°C° 0 mm 5 mps 743 mmHg 36%
    09:00 +26°C° 0 mm 5 mps 743 mmHg 31%
    10:00 +29°C° 0 mm 6 mps 743 mmHg 27%
    11:00 +29°C° 0 mm 6 mps 743 mmHg 25%
    12:00 +30°C° 0 mm 7 mps 743 mmHg 23%
    13:00 +32°C° 0 mm 7 mps 743 mmHg 22%
    14:00 +32°C° 0 mm 7 mps 742 mmHg 21%
    15:00 +32°C° 0 mm 7 mps 742 mmHg 21%
    16:00 +32°C° 0 mm 7 mps 741 mmHg 21%
    17:00 +30°C° 0 mm 6 mps 741 mmHg 24%
    18:00 +28°C° 0 mm 5 mps 741 mmHg 27%
    19:00 +27°C° 0 mm 4 mps 741 mmHg 30%
    20:00 +26°C° 0 mm 4 mps 740 mmHg 30%
    21:00 +25°C° 0 mm 4 mps 740 mmHg 30%
    22:00 +23°C° 0 mm 4 mps 740 mmHg 30%
    23:00 +23°C° 0 mm 4 mps 740 mmHg 32%

    Tomorrow, 23 August, Thursday

    Time Temperature Precipitation Wind Pressure Humidity
    00:00 +22°C° 0 mm 4 mps 740 mmHg 34%
    01:00 +22°C° 0 mm 5 mps 740 mmHg 35%
    02:00 +20°C° 0 mm 4 mps 740 mmHg 44%
    03:00 +19°C° 0 mm 4 mps 740 mmHg 52%
    04:00 +18°C° 0 mm 4 mps 740 mmHg 60%
    05:00 +18°C° 0.3 mm 4 mps 740 mmHg 66%
    06:00 +18°C° 0.3 mm 4 mps 740 mmHg 72%
    07:00 +16°C° 0.3 mm 5 mps 740 mmHg 77%
    08:00 +17°C° 0.1 mm 5 mps 740 mmHg 71%
    09:00 +19°C° 0.1 mm 5 mps 741 mmHg 64%
    10:00 +20°C° 0.1 mm 6 mps 741 mmHg 58%
    11:00 +21°C° 0 mm 6 mps 741 mmHg 52%
    12:00 +22°C° 0 mm 6 mps 741 mmHg 47%
    13:00 +23°C° 0 mm 6 mps 742 mmHg 41%
    14:00 +23°C° 0 mm 6 mps 742 mmHg 41%
    15:00 +22°C° 0 mm 6 mps 742 mmHg 41%
    16:00 +22°C° 0 mm 6 mps 742 mmHg 41%
    17:00 +21°C° 0 mm 6 mps 742 mmHg 44%
    18:00 +20°C° 0 mm 6 mps 742 mmHg 46%
    19:00 +19°C° 0 mm 5 mps 743 mmHg 49%
    20:00 +17°C° 0 mm 5 mps 743 mmHg 54%
    21:00 +16°C° 0 mm 5 mps 743 mmHg 59%
    22:00 +15°C° 0 mm 4 mps 744 mmHg 64%
    23:00 +14°C° 0 mm 4 mps 744 mmHg 66%

    Day after tomorrow, 24 August, Friday

    Time Temperature Precipitation Wind Pressure Humidity
    00:00 +14°C° 0 mm 4 mps 744 mmHg 68%
    01:00 +13°C° 0 mm 4 mps 745 mmHg 70%
    02:00 +12°C° 0 mm 4 mps 745 mmHg 71%
    03:00 +12°C° 0 mm 4 mps 745 mmHg 73%
    04:00 +11°C° 0 mm 4 mps 745 mmHg 74%
    05:00 +11°C° 0 mm 4 mps 745 mmHg 72%
    06:00 +11°C° 0 mm 4 mps 745 mmHg 70%
    07:00 +12°C° 0 mm 5 mps 746 mmHg 68%
    08:00 +13°C° 0 mm 5 mps 746 mmHg 60%
    09:00 +15°C° 0 mm 6 mps 746 mmHg 52%
    10:00 +17°C° 0 mm 6 mps 746 mmHg 44%
    11:00 +19°C° 0 mm 6 mps 745 mmHg 42%
    12:00 +20°C° 0 mm 7 mps 745 mmHg 39%
    13:00 +21°C° 0 mm 7 mps 745 mmHg 37%
    14:00 +21°C° 0 mm 7 mps 745 mmHg 38%
    15:00 +21°C° 0 mm 7 mps 745 mmHg 40%
    16:00 +21°C° 0 mm 6 mps 745 mmHg 41%
    17:00 +20°C° 0 mm 5 mps 745 mmHg 45%
    18:00 +20°C° 0 mm 4 mps 745 mmHg 49%
    19:00 +19°C° 0 mm 3 mps 745 mmHg 53%
    20:00 +18°C° 0 mm 3 mps 744 mmHg 56%
    21:00 +18°C° 0 mm 3 mps 744 mmHg 59%
    22:00 +17°C° 0 mm 2 mps 744 mmHg 62%
    23:00 +17°C° 0.1 mm 3 mps 744 mmHg 63%

    25 August, Saturday

    Time Temperature Precipitation Wind Pressure Humidity
    00:00 +17°C° 0.1 mm 3 mps 744 mmHg 65%
    01:00 +17°C° 0.1 mm 4 mps 744 mmHg 67%
    02:00 +17°C° 0 mm 4 mps 744 mmHg 68%
    03:00 +15°C° 0 mm 4 mps 743 mmHg 70%
    04:00 +15°C° 0 mm 4 mps 743 mmHg 72%
    05:00 +15°C° 0.1 mm 4 mps 743 mmHg 73%
    06:00 +15°C° 0.1 mm 4 mps 743 mmHg 74%
    07:00 +15°C° 0.1 mm 4 mps 743 mmHg 76%
    08:00 +16°C° 0.4 mm 5 mps 743 mmHg 74%
    09:00 +17°C° 0.4 mm 5 mps 742 mmHg 73%
    10:00 +19°C° 0.4 mm 5 mps 742 mmHg 71%
    11:00 +20°C° 0.4 mm 6 mps 742 mmHg 66%
    12:00 +21°C° 0.4 mm 7 mps 742 mmHg 62%
    13:00 +22°C° 0.4 mm 7 mps 741 mmHg 57%
    14:00 +22°C° 0.1 mm 8 mps 741 mmHg 54%
    15:00 +22°C° 0.1 mm 8 mps 741 mmHg 51%
    16:00 +22°C° 0.1 mm 8 mps 741 mmHg 48%
    17:00 +21°C° 0 mm 7 mps 741 mmHg 53%
    18:00 +20°C° 0 mm 6 mps 741 mmHg 58%
    19:00 +17°C° 0 mm 6 mps 742 mmHg 63%
    20:00 +16°C° 0 mm 5 mps 742 mmHg 68%
    21:00 +15°C° 0 mm 5 mps 742 mmHg 72%
    22:00 +14°C° 0 mm 4 mps 742 mmHg 77%
    23:00 +14°C° 0 mm 4 mps 742 mmHg 79%

    26 August, Sunday

    Time Temperature Precipitation Wind Pressure Humidity
    00:00 +13°C° 0 mm 4 mps 742 mmHg 80%
    01:00 +13°C° 0 mm 4 mps 742 mmHg 82%
    02:00 +12°C° 0 mm 4 mps 743 mmHg 85%
    03:00 +12°C° 0 mm 4 mps 743 mmHg 87%
    04:00 +11°C° 0 mm 4 mps 743 mmHg 90%
    05:00 +12°C° 0 mm 4 mps 743 mmHg 88%
    06:00 +12°C° 0 mm 4 mps 743 mmHg 86%
    07:00 +12°C° 0 mm 5 mps 743 mmHg 84%
    08:00 +14°C° 0 mm 5 mps 743 mmHg 76%
    09:00 +16°C° 0 mm 5 mps 743 mmHg 69%
    10:00 +17°C° 0 mm 5 mps 743 mmHg 61%
    11:00 +20°C° 0 mm 5 mps 743 mmHg 58%
    12:00 +21°C° 0 mm 5 mps 743 mmHg 55%
    13:00 +22°C° 0 mm 5 mps 743 mmHg 52%
    14:00 +23°C° 0 mm 5 mps 743 mmHg 51%
    15:00 +23°C° 0 mm 5 mps 743 mmHg 50%
    16:00 +23°C° 0 mm 5 mps 743 mmHg 49%
    17:00 +22°C° 0 mm 4 mps 743 mmHg 54%
    18:00 +22°C° 0 mm 4 mps 743 mmHg 58%
    19:00 +21°C° 0 mm 3 mps 743 mmHg 63%
    20:00 +20°C° 0 mm 3 mps 743 mmHg 68%
    21:00 +19°C° 0 mm 3 mps 744 mmHg 72%
    22:00 +18°C° 0 mm 3 mps 744 mmHg 77%
    23:00 +17°C° 0.1 mm 3 mps 744 mmHg 79%

    27 August, Monday

    Time Temperature Precipitation Wind Pressure Humidity
    00:00 +17°C° 0.1 mm 3 mps 744 mmHg 82%
    01:00 +16°C° 0.1 mm 2 mps 744 mmHg 84%
    02:00 +16°C° 0 mm 2 mps 744 mmHg 84%
    03:00 +16°C° 0 mm 2 mps 744 mmHg 84%
    04:00 +16°C° 0 mm 1 mps 744 mmHg 84%
    05:00 +16°C° 0 mm 1 mps 744 mmHg 82%
    06:00 +18°C° 0 mm 1 mps 745 mmHg 79%
    07:00 +18°C° 0 mm 1 mps 745 mmHg 77%
    08:00 +19°C° 0 mm 1 mps 745 mmHg 72%
    09:00 +20°C° 0 mm 1 mps 745 mmHg 68%
    10:00 +21°C° 0 mm 1 mps 745 mmHg 63%
    11:00 +22°C° 0.1 mm 1 mps 745 mmHg 61%
    12:00 +23°C° 0.1 mm 2 mps 745 mmHg 58%
    13:00 +23°C° 0.1 mm 2 mps 744 mmHg 55%
    14:00 +24°C° 0.5 mm 2 mps 744 mmHg 54%
    15:00 +24°C° 0.5 mm 2 mps 744 mmHg 52%
    16:00 +24°C° 0.5 mm 2 mps 744 mmHg 50%
    17:00 +23°C° 0.7 mm 2 mps 744 mmHg 55%
    18:00 +22°C° 0.7 mm 1 mps 744 mmHg 60%
    19:00 +21°C° 0.7 mm 1 mps 744 mmHg 65%
    20:00 +21°C° 0.2 mm 1 mps 744 mmHg 67%
    21:00 +20°C° 0.2 mm 1 mps 744 mmHg 69%
    22:00 +19°C° 0.2 mm 1 mps 745 mmHg 71%
    23:00 +19°C° 0.1 mm 1 mps 744 mmHg 74%
    Show more